Location: Knowlton
(51.2333°N, 1.2667°E)
Time: 05:07:54
(UTC+00:00)

IRIDIUM 114 - Pass Details

Date: 18 April 2021
Orbit: 776 x 779 km, 86.4° (Epoch: 06 May)

Event Time Altitude Azimuth Distance (km) Brightness Sun altitude
Exits shadow 20:49:04 - 186° (S) 2,424 6.5 -15.9°
Reaches altitude 10° 20:49:19 10° 186° (S) 2,326 6.5 -15.9°
Maximum altitude 20:54:32 83° 275° (W) 792 4.4 -16.5°
Drops below altitude 10° 20:59:48 10° 3° (N) 2,342 7.4 -17.1°
Sets 21:02:09 0° 4° (N) 3,274 8.2 -17.4°
